Hastings, NE

6:01 AM CST on November 13, 2019 (GMT -0600)
Hastings Municipal

Weather History for KHSI - October, 2019

Change the Weather History Date:

Monday, October 21, 2019

  Actual Average Record
Temperature  
Mean Temperature 45 °F 50 °F  
Max Temperature 48 °F 62 °F 90 °F (1947)
Min Temperature 41 °F 39 °F 20 °F (1916)
Degree Days  
Heating Degree Days 20 15  
Month to date heating degree days 277 226  
Since 1 July heating degree days 291 322  
Cooling Degree Days 0 0  
Month to date cooling degree days 1 11  
Year to date cooling degree days 1181 1074  
Moisture  
Dew Point 33 °F    
Average Humidity 64    
Maximum Humidity 76    
Minimum Humidity 45    
Precipitation  
Precipitation T in 0.05 in 1.10 in (1941)
Month to date precipitation 1.17 1.47  
Year to date precipitation 31.92 24.69  
Snow  
Snow 0.00 in 0.00 in T in (2006)
Month to date snowfall T 0.5  
Since 1 July snowfall T 0.7  
Since 1 September snowfall T 0.7  
Snow Depth 0.00 in    
Sea Level Pressure  
Sea Level Pressure 29.64 in    
Wind  
Wind Speed 19 mph ()    
Max Wind Speed 37 mph    
Max Gust Speed 53 mph    
Visibility 10.0 miles    
Events Rain    
T = Trace of Precipitation, MM = Missing Value Source: Averaged Metar Reports

Daily Weather History Graph

Daily Weather History Graph

Search for Another Location

Airport or City:

Astronomy

Oct. 21, 2019 Rise Set
Actual Time 7:51 AM CDT 6:44 PM CDT
Civil Twilight 7:23 AM CDT 7:12 PM CDT
Nautical Twilight 6:51 AM CDT 7:44 PM CDT
Astronomical Twilight 6:19 AM CDT 8:16 PM CDT
Moon No Moon Rise 3:11 PM CDT (10/21)
Length of Visible Light 11h 49m
Length of Day
10h 53m
Waning Gibbous, 48% of the Moon is Illuminated
Oct 21
Waning Gibbous
Oct 27
New
Nov 4
First Quarter
Nov 12
Full
Nov 19
Last Quarter

Hourly Weather History & Observations

Time (CDT) Temp. Windchill Dew Point Humidity Pressure Visibility Wind Dir Wind Speed Gust Speed Precip Events Conditions
12:53 AM 43.0 °F 37.7 °F 33.1 °F 68% 29.51 in 10.0 mi WSW 9.2 mph - N/A   Clear
1:53 AM 43.0 °F 36.4 °F 35.1 °F 74% 29.50 in 10.0 mi West 12.7 mph 19.6 mph N/A   Partly Cloudy
2:40 AM 43.0 °F 35.1 °F 34.0 °F 71% 29.51 in 10.0 mi WNW 17.3 mph 28.8 mph N/A   Mostly Cloudy
2:53 AM 43.0 °F 33.8 °F 34.0 °F 71% 29.51 in 10.0 mi WNW 23.0 mph 32.2 mph N/A   Mostly Cloudy
3:04 AM 42.1 °F 34.2 °F 34.0 °F 73% 29.51 in 10.0 mi WNW 16.1 mph - N/A   Scattered Clouds
3:53 AM 41.0 °F 31.4 °F 32.0 °F 70% 29.52 in 10.0 mi WNW 21.9 mph 31.1 mph N/A   Clear
4:37 AM 42.1 °F 33.6 °F 33.1 °F 70% 29.52 in 10.0 mi WNW 18.4 mph 29.9 mph N/A   Mostly Cloudy
4:53 AM 43.0 °F 34.2 °F 33.1 °F 68% 29.52 in 10.0 mi NW 20.7 mph 35.7 mph N/A   Overcast
5:37 AM 44.1 °F 35.4 °F 32.0 °F 63% 29.53 in 10.0 mi WNW 21.9 mph 38.0 mph N/A   Overcast
5:53 AM 44.1 °F 34.6 °F 33.1 °F 65% 29.53 in 10.0 mi WNW 26.5 mph 35.7 mph N/A   Overcast
6:53 AM 44.1 °F 34.8 °F 34.0 °F 68% 29.52 in 10.0 mi WNW 25.3 mph 40.3 mph N/A   Overcast
7:04 AM 44.1 °F 35.9 °F 34.0 °F 68% 29.52 in 10.0 mi WNW 19.6 mph 33.4 mph N/A   Overcast
7:44 AM 44.1 °F 34.8 °F 33.1 °F 65% 29.50 in 10.0 mi NW 25.3 mph 42.6 mph 0.00 in   Overcast
7:53 AM 44.1 °F 35.2 °F 33.1 °F 65% 29.50 in 10.0 mi NW 23.0 mph 40.3 mph 0.00 in   Overcast
8:53 AM 45.0 °F 35.6 °F 33.1 °F 63% 29.52 in 10.0 mi NW 27.6 mph 40.3 mph N/A   Overcast
9:53 AM 43.0 °F 33.5 °F 34.0 °F 71% 29.55 in 10.0 mi NW 24.2 mph 39.1 mph N/A   Overcast
10:05 AM 42.1 °F 31.9 °F 35.1 °F 76% 29.55 in 10.0 mi NW 26.5 mph 40.3 mph N/A   Overcast
10:53 AM 44.1 °F 34.0 °F 36.0 °F 73% 29.58 in 10.0 mi NW 29.9 mph 42.6 mph 0.00 in   Overcast
11:53 AM 46.9 °F - 35.1 °F 63% 29.60 in 10.0 mi NW 31.1 mph 41.4 mph N/A   Overcast
12:53 PM 46.9 °F - 34.0 °F 61% 29.63 in 10.0 mi NW 27.6 mph 42.6 mph N/A   Overcast
1:41 PM 48.0 °F - 34.0 °F 58% 29.64 in 10.0 mi NW 27.6 mph 39.1 mph N/A   Overcast
1:53 PM 46.9 °F - 34.0 °F 61% 29.66 in 10.0 mi NW 26.5 mph 40.3 mph N/A   Overcast
2:53 PM 46.9 °F - 35.1 °F 63% 29.69 in 10.0 mi NW 32.2 mph 43.7 mph N/A   Overcast
3:03 PM 46.0 °F 36.9 °F 35.1 °F 66% 29.67 in 10.0 mi NW 28.8 mph 42.6 mph N/A   Overcast
3:46 PM 46.9 °F - 36.0 °F 66% 29.70 in 10.0 mi NW 27.6 mph 40.3 mph 0.00 in Rain Light Rain
3:53 PM 46.9 °F - 35.1 °F 63% 29.72 in 10.0 mi NW 26.5 mph 49.5 mph 0.00 in   Overcast
4:53 PM 48.0 °F - 33.1 °F 56% 29.76 in 10.0 mi NW 32.2 mph 52.9 mph N/A   Overcast
5:53 PM 46.9 °F - 34.0 °F 61% 29.79 in 10.0 mi NW 27.6 mph 42.6 mph N/A   Overcast
6:53 PM 45.0 °F 36.0 °F 32.0 °F 60% 29.84 in 10.0 mi NW 25.3 mph 39.1 mph N/A   Mostly Cloudy
7:53 PM 46.9 °F - 27.0 °F 46% 29.87 in 10.0 mi NW 20.7 mph 36.8 mph N/A   Overcast
8:53 PM 46.0 °F 39.0 °F 27.0 °F 47% 29.89 in 10.0 mi NW 17.3 mph 28.8 mph N/A   Clear
9:53 PM 44.1 °F 37.4 °F 26.1 °F 49% 29.92 in 10.0 mi WNW 13.8 mph - N/A   Clear
10:53 PM 44.1 °F 37.1 °F 26.1 °F 49% 29.94 in 10.0 mi WNW 15.0 mph - N/A   Clear
11:53 PM 42.1 °F 34.9 °F 26.1 °F 53% 29.95 in 10.0 mi WNW 13.8 mph - N/A   Clear